User: anonymous   Login
Location: Pilipovskiye Korichintsy
(49.1833°N, 27.4667°E)
Time: 12:56:37
(UTC+00:00)
Language:

Meteor 1-23 Rocket - Orbit

View from above orbital plane
View from above orbital plane
View from above satellite
View from above satellite

Ground track
Ground track

The orbit data is extracted from the following two-line orbital elements,

1  8520U 75124B   20262.90278995 -.00000009 +00000-0 -12292-4 0  9996
2  8520 081.2870 097.7413 0036089 177.6860 182.4484 14.08997360298462
Epoch (UTC): 18 September 2020 21:40:01
Eccentricity: 0.0036089
inclination: 81.2870°
perigee height: 836 km
apogee height: 889 km
right ascension of ascending node: 97.7413°
argument of perigee: 177.6860°
revolutions per day: 14.08997360
mean anomaly at epoch: 182.4484°
orbit number at epoch: 29846

The dashed part of the orbit path shows where the satellite is in the earth's shadow,  

DLR